Location: El Bakhil
(32.7726°N, 5.5387°W)
Time: 01:40:53
(UTC+00:00)

N. Korean satellite - Visible Passes

Search period start: 02 December 2021 00:00
Search period end: 12 December 2021 00:00
Orbit: 447 x 495 km, 97.3° (Epoch: 01 December)

Date Brightness Start Highest point End Pass type
(mag) Time Alt. Az. Time Alt. Az. Time Alt. Az.
02 Dec 6.6 05:52:05 10° N 05:55:18 44° WNW 05:58:31 10° SSW visible
02 Dec 10.0 17:56:27 10° WSW 17:58:03 13° W 17:59:39 10° WNW visible
03 Dec 6.8 05:23:31 10° NNE 05:26:52 61° E 05:30:11 10° S visible
04 Dec 8.9 04:55:36 10° NE 04:58:18 22° E 05:00:58 10° SSE visible
04 Dec 8.2 06:29:29 10° NW 06:31:14 14° WNW 06:32:59 10° WSW visible
05 Dec 7.0 05:59:49 10° N 06:02:54 33° WNW 06:05:58 10° SW visible
06 Dec 6.3 05:31:03 10° NNE 05:34:27 83° ESE 05:37:49 10° S visible
07 Dec 8.4 05:02:54 10° NE 05:05:52 28° E 05:08:50 10° SSE visible
07 Dec 8.4 06:37:53 10° NW 06:38:43 11° WNW 06:39:34 10° W visible
08 Dec 9.9 04:36:05 10° ENE 04:37:11 11° E 04:38:18 10° ESE visible
08 Dec 7.4 06:07:31 10° NNW 06:10:22 26° WNW 06:13:14 10° SW visible
09 Dec 6.2 05:38:32 10° N 05:41:55 74° W 05:45:17 10° SSW visible
09 Dec 9.6 17:42:02 10° SW 17:44:33 18° W 17:47:03 10° NW visible
10 Dec 7.9 05:10:10 10° NNE 05:13:20 37° E 05:16:30 10° SSE visible
11 Dec 9.6 04:42:41 10° ENE 04:44:39 14° E 04:46:35 10° SE visible
11 Dec 7.7 06:15:32 12° NNW 06:17:44 21° WNW 06:20:20 10° WSW visible
